Location: Berg
(48.4333°N, 13.9167°E)
Time: 02:19:12
(UTC+00:00)

Cosmos 1626 - Pass Details

Date: 18 September 2020
Orbit: 490 x 495 km, 82.5° (Epoch: 24 October)

Event Time Altitude Azimuth Distance (km) Brightness Sun altitude
Rises 20:13:09 0° 343° (NNW) 2,589 6.6 -28.7°
Reaches altitude 10° 20:15:22 10° 335° (NNW) 1,700 5.6 -28.9°
Enters shadow 20:17:21 26° 315° (NW) 1,009 4.2 -29.2°
